Location: Crovara
(44.5000°N, 10.3833°E)
Time: 14:37:45
(UTC+00:00)

Daily predictions for brighter satellites

Satellite Brightness Start Highest point End
(mag) Time Altitude Azimuth Time Altitude Azimuth Time Altitude Azimuth
CSL-04 Rocket 4.4 18:57:31 10° S 19:02:42 54° W 19:07:58 10° NNW
ATLAS 5 CENTAUR R/B 2.7 18:57:42 10° NNW 19:03:08 54° NE 19:09:31 10° SE
MOS 1-B Rocket 4.4 18:56:05 10° NNE 19:03:27 63° E 19:09:41 10° S
MetOp-A 4.4 18:58:56 10° S 19:04:17 77° WSW 19:09:40 10° NNW
DELTA 2 R/B (1) 4.2 19:02:33 10° W 19:07:47 42° SSW 19:13:00 10° SE
Cosmos 1503 Rocket 4.3 19:03:14 10° S 19:08:05 44° ESE 19:13:01 10° NNE
Cosmos 2221 3.9 19:06:41 10° SSW 19:10:49 44° WNW 19:15:00 10° N
Cosmos 1743 Rocket 3.8 19:06:51 10° NNW 19:11:12 73° W 19:15:33 10° S
Cosmos 1844 3.7 19:09:04 10° SSW 19:14:47 80° ESE 19:20:29 10° NNE
BREEZE-M DEB (TANK) 3.4 19:13:30 10° W 19:15:24 23° SSW 19:17:53 10° SSE
Ariane Rocket 3.0 19:12:19 10° SSE 19:17:19 70° ENE 19:22:23 10° N
Cosmos 1833 Rocket 4.1 19:15:47 10° N 19:20:26 25° NE 19:25:04 10° ESE
SL-4 R/B 3.6 19:17:19 10° WNW 19:21:11 31° SW 19:25:15 10° SSE
Resurs 1-3 3.6 19:17:15 10° SSE 19:21:35 68° ENE 19:25:58 10° N
Cosmos 1500 Rocket 4.3 19:17:43 10° NNW 19:22:01 54° W 19:26:15 10° S
Cosmos 1745 Rocket 4.0 19:17:02 10° N 19:23:16 74° E 19:29:22 10° SSE
Cosmos 1709 Rocket 4.4 19:19:44 10° N 19:25:35 45° ENE 19:31:24 10° SSE
BREEZE-M DEB (TANK) 3.9 19:25:30 10° WNW 19:29:46 87° SSW 19:38:04 10° ESE
Cosmos 1666 Rocket 4.0 19:26:50 10° N 19:31:04 45° ENE 19:35:00 11° SSE
Cosmos 1437 3.9 19:33:32 15° SE 19:34:46 20° E 19:36:55 10° NE
NOSS 3-3 (A) 3.9 19:32:27 10° SSW 19:37:58 56° ESE 19:44:12 10° NE
NOSS 3-3 (C) 3.9 19:32:33 10° SSW 19:38:04 56° ESE 19:44:19 10° NE
CZ-2C R/B 4.4 19:34:18 10° NNE 19:38:23 33° E 19:42:29 10° SSE
Intercosmos 24 3.6 19:36:52 10° S 19:40:38 87° W 19:44:14 10° N
Cosmos 1354 Rocket 3.9 19:35:58 10° SSW 19:41:10 74° ESE 19:46:25 10° NNE
ATLAS 2AS CENTAUR R/B 4.4 19:36:06 10° NNW 19:42:11 25° NNE 19:47:54 10° E
S3M 4.2 19:36:40 10° S 19:43:02 84° W 19:49:25 10° N
USA 245 4.1 19:43:37 13° E 19:43:59 14° ENE 19:45:15 10° NE
SJ 16-02 2.9 19:42:36 15° ESE 19:44:05 18° E 19:47:01 10° NE
Sich 1 3.2 19:40:54 10° NNW 19:45:15 75° W 19:49:37 10° S
OBJECT-B 2.9 19:43:08 10° SSW 19:45:54 26° W 19:48:41 10° NW
Meteor 1-26 Rocket 4.2 19:41:20 10° S 19:46:56 63° E 19:52:24 10° NNE
SPOT 1/Viking Rocket 4.1 19:42:57 15° SE 19:47:00 42° ENE 19:51:52 10° N
USA 308 4.3 19:44:37 10° NW 19:48:30 32° NNE 19:52:22 10° E
Cosmos 2315 Rocket 4.1 19:42:33 10° S 19:48:47 60° E 19:55:03 10° NNE
Cosmos 1500 3.9 19:50:41 10° N 19:54:11 37° ENE 19:56:07 21° SE
Terra 3.6 19:54:08 12° E 19:56:40 18° ENE 19:59:50 10° NNE
BREEZE M DEB (TANK) 3.3 19:52:13 10° WNW 19:57:28 39° N 19:59:41 11° ENE
Meteor 1-14 Rocket 4.5 19:54:22 10° N 20:00:10 58° ENE 20:04:21 18° SSE
Cosmos 2082 Rocket 3.5 19:55:35 10° N 20:00:18 27° NE 20:03:59 14° E
Cosmos 1151 Rocket 3.0 19:57:06 10° S 20:01:27 79° E 20:05:51 10° N
SPOT 3 Rocket 3.5 19:56:54 13° SSE 20:01:31 90° E 20:06:42 10° NNW
OE (NEXTSAT) 4.3 19:58:36 10° WNW 20:02:05 89° NNE 20:04:06 23° ESE
SPOT 5 4.2 19:59:19 17° ESE 20:02:16 29° ENE 20:06:47 10° N
X-37B 0.9 20:00:20 10° W 20:03:28 51° SSW 20:04:43 30° SE
CREW DRAGON DEMO-1 DEB 4.3 20:01:23 10° NW 20:03:42 26° NNE 20:05:17 15° ENE
Resurs 01 Rocket 1.8 20:02:15 13° S 20:06:13 71° WSW 20:10:40 10° NNW
Cosmos 2084 3.3 20:02:13 10° SW 20:06:21 90° W 20:10:37 10° NE
COSMOS 2406 3.6 20:01:26 10° NNW 20:06:58 52° ENE 20:10:34 22° SE
USA 290 4.1 20:06:12 10° NW 20:08:58 26° WSW 20:11:34 11° SSW
Meteor 2-6 Rocket 4.4 20:12:08 19° SSE 20:15:44 48° E 20:21:01 10° NNE
Cosmos 1538 Rocket 4.4 20:10:37 10° NNW 20:15:52 51° ENE 20:18:46 25° SE
Cosmos 773 Rocket 4.0 20:13:57 10° NNW 20:19:17 84° WSW 20:22:41 23° SSE
MetOp-B 4.2 20:15:10 18° SSE 20:19:17 82° WSW 20:24:41 10° NNW
Cosmos 1271 Rocket 3.7 20:19:15 28° ESE 20:20:00 30° E 20:23:33 10° NNE
Cosmos 2278 Rocket 2.2 20:18:45 10° S 20:24:19 63° ESE 20:29:55 10° NNE
Spot 2 Rocket 3.5 20:22:06 26° SSE 20:24:57 68° ENE 20:29:59 10° N
Landsat 7 4.3 20:23:02 17° S 20:26:40 59° W 20:31:23 10° NNW
Cosmos 1782 3.6 20:22:59 10° SSW 20:26:52 50° WNW 20:30:46 10° N
BREEZE-M DEB (TANK) 2.9 20:25:11 10° NW 20:27:04 26° N 20:27:56 20° NE
IGS 5A 4.4 20:24:31 15° SSW 20:27:41 45° W 20:31:41 10° NNW
USA 305 3.5 20:25:00 10° NW 20:29:10 50° NNE 20:31:23 25° E
GPS 2-04 Rocket1 4.2 20:26:11 10° SW 20:28:42 21° SSW 20:28:42 21° SSW
Cosmos 1943 Rocket 4.1 20:32:27 13° E 20:32:27 13° E 20:34:07 10° ENE
Cosmos 1515 Rocket 3.5 20:29:37 25° S 20:32:09 76° E 20:36:33 10° NNE
ERS-1 Rocket 3.2 20:30:20 30° SE 20:32:36 53° ENE 20:37:30 10° N
BREEZE-M DEB (TANK) 3.9 20:28:15 10° WNW 20:34:33 33° SW 20:35:39 26° SSW
CZ-4C R/B 3.0 20:31:20 10° NW 20:38:42 85° SW 20:43:47 27° SSE
Cosmos 1633 Rocket 4.2 20:36:19 10° NNW 20:40:25 39° W 20:43:37 15° SSW
Meteor 1-11 Rocket 4.1 20:39:34 10° N 20:45:27 54° ENE 20:47:54 33° SE
deb Kosmos-1763 3.8 20:43:54 10° NNW 20:47:28 85° ENE 20:47:57 64° SSE
ATLAS 5 CENTAUR R/B 3.6 20:42:32 10° NW 20:47:45 34° WSW 20:51:47 18° S
USA 306 3.1 20:44:17 10° NW 20:48:32 65° NNE 20:49:58 39° E
Cosmos 1812 3.1 20:47:18 26° SSW 20:49:18 61° W 20:53:09 10° N
Cosmos 1470 Rocket 4.2 20:48:25 10° NNW 20:52:47 51° W 20:55:00 26° SSW
ARIANE 5 R/B 2.8 20:52:22 36° S 20:54:01 66° WSW 20:58:20 10° NNW
Cosmos 1340 Rocket 4.2 20:51:47 10° NNE 20:55:13 26° ENE 20:55:28 25° ENE
CARTOSAT-1 3.8 20:56:42 38° SSW 20:58:13 64° W 21:02:31 10° NNW
Cosmos 1666 2.7 20:56:07 10° NNW 20:59:50 69° W 21:00:28 55° SSW
Meteor 2-12 Rocket 4.4 20:56:58 10° N 21:03:02 71° E 21:05:22 39° SSE
Cosmos 1833 Rocket 3.0 20:59:13 10° NNW 21:04:45 58° WSW 21:07:04 34° S
SL-24 DEB 4.3 21:05:35 51° SE 21:06:26 61° E 21:10:59 10° N
BREEZE-M R/B 3.9 21:04:51 10° WNW 21:07:00 27° N 21:07:49 22° NNE
Cosmos 1933 Rocket 4.0 21:02:47 10° NNW 21:07:02 55° W 21:08:26 37° SSW
Cosmos 2154 Rocket 4.0 21:01:00 10° N 21:07:19 69° E 21:09:43 39° SSE
Cosmos 1898 Rocket 4.0 21:07:15 39° ESE 21:07:34 39° ESE 21:12:30 10° NE
Meteor 1-10 Rocket 4.2 21:05:30 27° SSW 21:08:42 79° W 21:14:23 10° N
Cosmos 923 Rocket 4.1 21:03:31 10° NNW 21:08:45 63° ENE 21:10:12 45° SE
Cosmos 1536 2.9 21:06:25 10° N 21:10:25 57° E 21:10:33 57° E
Cosmos 2184 Rocket 4.1 21:08:31 10° NNW 21:14:44 73° W 21:17:33 34° S
Cosmos 1743 3.8 21:11:16 10° N 21:14:28 32° ENE 21:14:28 32° ENE
USA 307 2.7 21:10:54 10° NW 21:15:12 89° SW 21:15:37 72° SE
H-2A R/B 3.3 21:13:37 10° NNE 21:17:50 86° ESE 21:18:18 69° S
Cosmos 2074 Rocket 4.2 21:12:59 10° NNW 21:19:14 66° W 21:22:14 32° SSW
NOSS 3-4 (A) 3.8 21:13:49 10° NW 21:20:53 86° SW 21:24:06 39° SSE
Cosmos 990 Rocket 4.0 21:20:01 54° SSE 21:20:55 63° ESE 21:26:08 10° NNE
NOSS 3-4 (C) 3.8 21:13:55 10° NW 21:20:59 86° SW 21:24:12 39° SSE
SJ 16-02 2.3 21:19:29 20° SW 21:22:15 47° WNW 21:26:34 10° N
Nadezhda 1 Rocket 3.9 21:19:51 36° S 21:22:38 88° E 21:28:55 10° N
Cosmos 2297 3.9 21:22:45 46° SE 21:23:17 48° ESE 21:28:42 10° NE
Cosmos 1733 Rocket 4.0 21:23:58 10° N 21:27:49 33° ENE 21:27:49 33° ENE
USA 308 2.8 21:24:31 10° WNW 21:28:43 73° SW 21:28:43 73° SW
Terra 2.1 21:33:01 49° SW 21:33:57 59° W 21:38:40 10° NNW
ATLAS 2AS CENTAUR R/B 2.8 21:27:04 10° NW 21:34:28 73° NE 21:37:05 41° SE
Cosmos 1544 3.5 21:34:04 10° N 21:37:03 58° N 21:37:03 58° N
SPOT 5 4.0 21:38:33 31° SW 21:40:09 39° W 21:45:05 10° NNW
ERBS 4.5 21:40:18 10° NNW 21:42:53 20° NNE 21:43:15 20° NE
Cosmos 2082 Rocket 2.5 21:39:14 10° NW 21:44:42 54° WSW 21:45:50 46° SSW
Cosmos 2181 Rocket 4.2 21:44:37 46° ESE 21:45:32 50° E 21:51:25 10° NNE
Cosmos 2228 Rocket 4.1 21:45:34 33° WSW 21:46:47 41° WNW 21:51:02 10° N
Cosmos 2112 Rocket 3.9 21:42:04 10° NNW 21:47:28 87° ENE 21:48:11 68° SSE
Cosmos 967 Rocket 4.3 21:49:31 52° S 21:51:03 73° ESE 21:57:20 10° NE
Cosmos 44 3.5 21:45:49 10° NNW 21:51:16 73° NE 21:51:59 63° ESE
Cosmos 2366 rocket 4.3 21:48:43 10° N 21:54:45 53° ENE 21:55:56 46° ESE
Spot 4 4.2 21:55:19 50° E 21:55:35 51° ENE 22:00:17 10° N
Cosmos 2084 Rocket 3.9 21:55:03 10° NNW 21:59:14 54° NE 21:59:14 54° NE
Cosmos 2341 Rocket 4.0 21:56:16 10° N 22:02:42 88° W 22:04:08 57° S
Cosmos 2278 Rocket 4.3 22:04:21 10° WSW 22:08:51 24° NW 22:13:23 10° N
Cosmos 1937 Rocket 3.3 22:09:31 76° SW 22:09:55 83° WNW 22:15:07 10° NNE
Cosmos 1862 Rocket 3.8 22:10:39 62° NNE 22:10:39 62° NNE 22:14:19 10° N
Milstar 3 4.5 22:04:08 10° WSW 22:10:46 25° SSW 22:10:46 25° SSW
SL-24 R/B - RUBIN 2 3.8 22:07:48 10° NW 22:13:07 75° WSW 22:13:07 75° WSW
Cosmos 1680 Rocket 4.0 22:09:24 10° NNW 22:14:30 47° WSW 22:14:52 46° WSW
Cosmos 1943 Rocket 2.0 22:13:55 71° SSW 22:14:34 89° ESE 22:20:13 10° NNE
Cosmos 2369 Rocket 2.5 22:17:10 49° E 22:17:10 49° E 22:22:11 10° NE
Cosmos 2218 Rocket 3.9 22:10:53 10° N 22:17:12 80° E 22:18:16 63° SSE
Meteor 1-19 Rocket 3.9 22:19:24 80° S 22:19:42 87° E 22:25:07 10° NNE
Centaur D AC-29 4.4 21:46:23 10° WSW 22:20:12 30° SSW 22:20:12 30° SSW
Gbstr 26 Del rocket 4.1 22:14:08 10° WNW 22:21:28 72° NNE 22:23:48 41° E
Cosmos 1238 Rocket 3.7 22:18:34 10° NNW 22:24:41 70° W 22:25:13 65° SW
Cosmos 1607 4.5 22:26:50 44° ESE 22:26:50 44° ESE 22:32:34 10° NE
Meteor 2-9 Rocket 4.1 22:22:20 10° NNW 22:28:08 82° W 22:28:36 75° SSW
Okean 1 4.3 22:29:36 44° NW 22:29:36 44° NW 22:32:48 10° N
Okean 1-7 4.2 22:31:00 33° NE 22:31:00 33° NE 22:33:52 10° NNE
Cosmos 1818 3.5 22:28:44 10° NW 22:34:11 78° WSW 22:34:11 78° WSW
Cosmos 1656 Rocket 4.3 22:35:34 41° E 22:35:34 41° E 22:40:01 10° NE
Nadezhda 3 Rocket 4.5 22:35:11 43° ESE 22:35:43 44° E 22:41:35 10° NNE
DNEPR-1 R/B 4.4 22:34:45 45° WSW 22:36:20 63° NW 22:41:18 10° NNE
ALOS 2 3.0 22:41:06 62° N 22:41:06 62° N 22:44:49 10° N
SL-8 Rocket 4.2 22:34:17 10° NNW 22:40:29 59° W 22:41:32 52° SW
Cosmos 2263 4.4 22:43:18 60° E 22:43:18 60° E 22:48:47 10° NNE
Meteor 2-4 Rocket 3.6 22:47:05 81° SSE 22:47:22 87° E 22:53:02 10° N
SL-08 R/B 4.3 22:51:31 10° N 22:57:45 89° W 22:58:29 72° S
BREEZE-M DEB (TANK) 3.8 22:44:06 10° WNW 22:57:47 88° NNE 22:58:40 64° ESE
Cosmos 1975 4.3 22:57:56 10° NNW 23:00:28 31° NW 23:00:28 31° NW
Cosmos 2150 Rocket 4.1 23:04:29 69° ENE 23:04:29 69° ENE 23:09:26 10° NNE
RESURS DK-1 3.3 23:00:20 10° NNW 23:03:31 46° N 23:03:31 46° N
Cosmos 1461 3.9 23:07:22 45° WNW 23:07:37 46° NW 23:12:06 10° NNE
Cosmos 2242 Rocket 4.2 23:09:01 55° NNW 23:09:01 55° NNW 23:12:42 10° N
Cosmos 1833 4.2 23:03:05 10° NNW 23:08:52 73° ENE 23:09:22 68° ESE
SeaSat 1 3.2 23:04:42 10° NE 23:08:32 42° E 23:08:32 42° E
Meteor 1-12 Rocket 4.2 23:06:25 10° N 23:12:19 75° ENE 23:12:43 71° ESE
Cosmos 2239 Rocket 4.4 23:06:25 10° N 23:12:46 76° E 23:13:34 66° SE
ISS -1.0 23:18:16 16° NE 23:18:16 16° NE 23:19:08 10° NE
USA 215 3.5 23:13:56 25° ESE 23:17:58 68° NNE 23:24:27 10° NW
Cosmos 468 4.5 23:13:29 10° NNW 23:18:27 76° WNW 23:18:27 76° WNW
Cosmos 494 Rocket 4.0 23:15:05 10° NNW 23:20:07 77° NE 23:20:07 77° NE
Cosmos 1300 Rocket 4.4 23:18:01 10° N 23:21:41 44° NE 23:21:41 44° NE
Okean 2 Rocket 4.1 23:20:14 10° N 23:23:56 38° ENE 23:23:56 38° ENE
ATLAS 2AS CENTAUR R/B 4.0 23:19:05 10° WNW 23:24:29 25° WSW 23:24:29 25° WSW
Nimbus 7 Rocket 4.4 23:20:01 10° N 23:25:52 69° WNW 23:26:37 62° WSW
Cosmos 1867 3.6 23:25:56 71° W 23:26:14 73° NW 23:31:43 10° NNE
Cosmos 1125 Rocket 3.4 23:26:49 81° NE 23:26:49 81° NE 23:31:49 10° NNE
Cosmos 44 Rocket 4.1 23:25:17 10° NNW 23:30:23 50° NE 23:31:24 43° E
ATLAS CENTAUR R/B 2.7 23:38:29 33° NNE 23:38:29 33° NNE 23:40:44 10° NNE
Cosmos 1821 Rocket 4.2 23:34:30 10° NNW 23:40:45 56° W 23:41:25 54° WSW
Cosmos 2344 4.3 23:31:31 10° NW 23:40:58 86° NE 23:51:07 19° SE
USA 281 4.3 23:36:59 18° ESE 23:41:24 40° NE 23:47:25 10° NNW
Cosmos 1934 Rocket 3.8 23:35:17 10° N 23:41:28 85° E 23:42:09 71° SSE
Okean 3 4.4 23:50:46 42° NW 23:50:46 42° NW 23:54:04 10° N
USA 81 4.2 23:45:02 10° N 23:50:17 61° E 23:50:37 60° ESE
Lacrosse 5 2.7 23:54:51 40° E 23:54:51 40° E 23:58:38 10° ENE
